Regional Weather Roundup
Issued by NWS Grand Forks, ND

Home | Current Version | Previous Version | Text Only | Print | Product List | Glossary Off
Versions: 1 2 3 4 5 6 7 8 9 10 11 12 13 14 15 16 17 18 19 20 21 22 23 24 25 26 27 28 29 30 31 32 33 34 35 36 37 38 39 40 41 42 43 44 45 46 47 48 49 50

138
ASUS43 KFGF 222110
RWRFGF
PRAIRIE TO PINES  WEATHER ROUNDUP
NATIONAL WEATHER SERVICE EASTERN NORTH DAKOTA/GRAND FORKS ND
300 PM CST SUN JAN 22 2017

 **SATELLITE DATA USED TO AUGMENT SKY COVER AT AUTOMATED STATIONS**
 *****  WEATHER ACROSS EASTERN NORTH DAKOTA  *****

CITY           SKY/WX    TMP DP  RH WIND       PRES   REMARKS
GRAND FORKS    CLOUDY    34  28  79 W9        29.73S HAZE
GRAND FRKS AFB CLOUDY    32  29  87 W7        29.73S
DEVILS LAKE    PTSUNNY   31  27  85 W13       29.73R WCI  21
FARGO          CLOUDY    36  32  85 W6        29.75R FOG
WAHPETON ARPT  CLOUDY    32  30  93 W6        29.76S
$$

 ***** WEATHER ACROSS CENTRAL AND WESTERN NORTH DAKOTA  *****

CITY           SKY/WX    TMP DP  RH WIND       PRES   REMARKS
BISMARCK       CLOUDY    33  29  85 W13       29.80R WCI  24
MINOT          CLOUDY    34  29  82 W9        29.74F
JAMESTOWN      CLOUDY    33  27  78 NW17      29.73R WCI  22
MINOT AFB      CLOUDY    32  29  89 NW12      29.74S WCI  23
GARRISON         N/A     31  28  89 W13       29.76S WCI  21
WILLISTON      CLOUDY    31  27  85 W13       29.80S WCI  21
DICKINSON      CLOUDY    27  23  85 NW20      29.77F WCI  13
HETTINGER      CLOUDY    27  23  85 NW21      29.81S WCI  13
$$

 *****  OTHER AIRPORT OBSERVATIONS IN OUR AREA  *****

CITY           SKY/WX    TMP DP  RH WIND       PRES   REMARKS
WALHALLA       NOT AVBL
GRAFTON AIRPOR CLOUDY    32  32 100 W6        29.74S FOG
VALLEY CITY AR MOCLDY    32  32 100 NW16      29.75S WCI  21
CANDO          NOT AVBL
CAVALIER APRT  CLOUDY    34  32  93 NW3       29.72R FOG
GWINNER        CLOUDY    34  32  93 W9        29.76S
SHEYENNE NWR     N/A     34  31  87 W6        29.95S
ROLLA            N/A    N/A N/A N/A MISG        N/A
 ***** THE ABOVE OBSERVATIONS ARE NON NWS ARE NOT QUALITY
       CONTROLLED AND MAY MIS-REPORT RAIN FOR SNOW...
$$

  *****  WEATHER ACROSS NORTHERN MINNESOTA  *****

CITY           SKY/WX    TMP DP  RH WIND       PRES   REMARKS
FLAG ISLAND    CLOUDY    34  32  93 S3        29.71R
WARROAD        CLOUDY    36  30  80 CALM      29.71S
ROSEAU         HAZE      36  30  80 CALM      29.71R VSB<1/4
HALLOCK        FOG       34  34 100 W5        29.72R VSB 1/4
THF RVR FALLS  FOG       33  32  96 W8        29.73R VSB 1/4
BAUDETTE       CLOUDY    35  33  92 CALM      29.70R
WASKISH        CLOUDY    36  34  93 W3        29.70S
CROOKSTON      CLOUDY    32  32 100 W3        29.74S FOG
GREENBUSH NDAW   N/A     34  34 100 CALM        N/A
$$
  *****  WEATHER ACROSS CENTRAL AND WEST MINNESOTA  *****

CITY           SKY/WX    TMP DP  RH WIND       PRES   REMARKS
FOSSTON        FOG       32  32 100 W7        29.72R VSB 1/4
BEMIDJI        CLOUDY    35  34  96 W6        29.69S
PARK RAPIDS    CLOUDY    35  32  88 W7        29.69S
ELBOW LAKE     FOG       31  31 100 NW8       29.75R VSB 3/4 WCI  24
WADENA         CLOUDY    34  34 100 W7        29.72R FOG
DETROIT LAKES  FOG       32  32 100 NW9       29.74R VSB 1/2 WCI  24
MOORHEAD       CLOUDY    34  30  86 W7        29.76R FOG
FERGUS FALLS   CLOUDY    30  30 100 NW10      29.79R FOG     WCI  21
MORRIS MN      CLOUDY    32  32 100 W10       29.75R FOG     WCI  24
STAPLES        CLOUDY    36  36 100 W6        29.71R
$$
  *****  WEATHER ELSEWHERE ACROSS MINNESOTA  *****

CITY           SKY/WX    TMP DP  RH WIND       PRES   REMARKS
DULUTH         CLOUDY    37  34  89 NW6       29.66R
INTRNTL FALLS  CLOUDY    37  34  89 N3        29.69S
ELY            CLOUDY    36  34  93 CALM      29.67R
CLOQUET        CLOUDY    37  34  87 W3        29.67R
WHEATON        CLOUDY    37  37 100 W8        29.78S FOG
BRAINERD       CLOUDY    37  34  89 NW8       29.70S
HIBBING        CLOUDY    36  34  92 N5        29.67S
ALEXANDRIA     FOG       32  32 100 NW8       29.74R VSB 1/4 WCI  25
SAINT CLOUD    CLOUDY    37  36  96 NW5       29.72R
MINNEAPOLIS    CLOUDY    40  35  83 NW8       29.72R
$$

  *****  WEATHER ACROSS SOUTH DAKOTA  *****

CITY           SKY/WX    TMP DP  RH WIND       PRES   REMARKS
SIOUX FALLS    CLOUDY    29  28  96 W12       29.81R FOG     WCI  19
BROOKINGS      CLOUDY    28  27  96 NW9       29.78S FOG     WCI  19
WATERTOWN      CLOUDY    29  27  92 NW12      29.77R FOG     WCI  19
HURON          CLOUDY    30  28  92 W13       29.83R WCI  20
SISSETON         N/A     33  31  92 N15       29.76R WCI  23
ABERDEEN       CLOUDY    29  24  82 W12       29.80R WCI  19
MITCHELL       CLOUDY    32  28  85 NW16      29.85S WCI  21
PIERRE         CLOUDY    29  24  82 NW16      29.86R WCI  17
MOBRIDGE       CLOUDY    30  25  81 W7        29.80R WCI  23
RAPID CITY     FAIR      39  25  57 S7        29.83S
$$

  *****  SOME WEATHER IN NEARBY STATES *****

CITY           SKY/WX    TMP DP  RH WIND       PRES   REMARKS
GLASGOW MT     CLOUDY    30  26  85 W7        29.81F WCI  23
GREAT FALLS MT FAIR      34  24  67 E7        29.73F
CHEYENNE WY    FAIR      37   9  31 W18G31    29.87F
SCOTTSBLUFF NE FAIR      45  18  34 W15G24    29.88S
OMAHA NE       CLOUDY    38  32  79 NW12      29.81R
DES MOINES IA  CLOUDY    38  35  89 NW13      29.73R FOG
DAVENPORT IA   PTSUNNY   42  38  85 N8        29.66S
CHICAGO IL     CLOUDY    45  39  79 N9        29.61R
EAU CLAIRE WI  CLOUDY    37  34  89 NW6       29.68R
LA CROSSE WI   CLOUDY    40  36  86 N7        29.69R FOG
$$

  *****  SOME NATIONAL WEATHER *****

CITY           SKY/WX    TMP DP  RH WIND       PRES   REMARKS
LA GUARDIA NY  LGT RAIN  45  41  86 NE12      29.71R FOG
RALEIGH NC     FOG       55  53  93 CALM      29.58R VSB 1/2
ATLANTA GA     CLOUDY    61  60  97 E21G33    29.19F
NEW ORLEANS LA PTSUNNY   65  40  39 W23G31    29.44S
OKLAHOMA CITY  FAIR      58  38  47 N24G35    29.76R
ALBUQUERQUE NM PTSUNNY   41  20  43 CALM      30.10F
SALT LAKE CITY CLOUDY    38  22  52 S22G30    29.82F
LOS ANGELES CA HVY RAIN  50  49  96 E18       29.97F FOG
BOISE ID       CLOUDY    39  29  67 SE17      29.61S
SEATTLE WA     CLOUDY    45  39  79 SE7       29.55R
$$

*** WEATHER ACROSS MANITOBA...SASKATCHEWAN AND ONTARIO ***
                ***ONTARIO***

CITY           SKY/WX    TMP DP  RH WIND       PRES   REMARKS
GERALDTON      CLOUDY    32  30  93 NE12      29.70R WCI  23
THUNDER BAY    LGT SNOW  36  34  93 VRB2      29.68R
SIOUX LOOKOUT  CLOUDY    34  32  93 VRB2      29.70S
TORONTO        CLOUDY    41  41 100 SE3       29.71R
BIG TROUT LK   FLURRIES  28  25  86 SE6       29.84R WCI  22
PICKLE LAKE    CLOUDY    30  27  86 E6        29.74S WCI  24
DRYDEN         FOG       34  34 100 NE5       29.69  VSB 3/8
KENORA         CLOUDY    36  36 100 N2        29.70R FOG
$$
                *** MANITOBA***

CITY           SKY/WX    TMP DP  RH WIND       PRES   REMARKS
BRANDON        CLOUDY    30  27  86 W13       29.70S WCI  20
DAUPHIN        CLOUDY    34  30  86 W10       29.68S
ISLAND LAKE    NOT AVBL
PILOT MOUND      N/A     30  27  86 NW8         N/A  WCI  23
THE PAS        LGT SNOW  34  32  93 NE6       29.73S
THOMPSON       LGT SNOW  28  27  93 NE8       29.81R WCI  20
WINNIPEG       LGT SNOW  34  32  93 W5        29.71R FOG
LYNN LAKE      FLURRIES  21  19  93 NE13G18   29.87R WCI   9
CHURCHILL      FOG       21  21 100 E6        29.95R VSB 1/2 WCI  14
GILLAM         LGT SNOW  25  23  93 NE3       29.86R
$$
                ***SASKATCHEWAN***

CITY           SKY/WX    TMP DP  RH WIND       PRES   REMARKS
ESTEVAN        CLOUDY    28  27  93 W16       29.75R WCI  17
KINDERSLEY     CLOUDY    21  18  86 NW12      29.81F WCI   9
LLOYDMINSTER   LGT SNOW  18  16  93 N10       29.86F FOG     WCI   6
PRINCE ALBERT  LGT SNOW  25  19  80 N14       29.77F WCI  13
REGINA         FLURRIES  28  23  80 NW15      29.74S WCI  17
YORKTON        CLOUDY    28  27  93 NW10      29.67S WCI  19
N. BATTLEFORD  FLURRIES  18  16  93 NW14      29.85F WCI   4
LA RONGE       LGT SNOW  25  19  80 N12       29.85S WCI  14
SASKATOON      LGT SNOW  21  16  79 N12       29.81S DRFTSNOWWCI   9
SWIFT CURRENT  CLOUDY    23  21  93 NW13      29.76S WCI  11
$$
NOTE: THESE ARE AUTOMATED STATIONS WITH LIMITED QUALITY CONTROL
      "FAIR" INDICATES FEW OR NO CLOUDS BELOW 12,000 FEET WITH NO
      SIGNIFICANT WEATHER AND/OR OBSTRUCTIONS TO VISIBILITY.
      SKY/WX - SKY CONDITION AND SIGNIFICANT WEATHER.
      TMP - AIR TEMPERATURE.    DP   - DEWPOINT TEMPERATURE.
      RH  - RELATIVE HUMIDITY.  PRES - PRESSURE.
      HX  - HEAT INDEX.         WCI  - WIND CHILL INDEX.
$




USA.gov is the U.S. government's official web portal to all federal, state and local government web resources and services.